User: anonymous   Login
Location: Muenchen
(48.1800°N, 11.5800°E)
Time: 14:33:30
(UTC+02:00)
Language:

ISS - Orbit

View from above orbital plane
View from above orbital plane
View from above satellite
View from above satellite

Ground track
Ground track

The orbit data is extracted from the following two-line orbital elements,

1 25544U 98067A   16147.30479317  .00002174  00000-0  39291-4 0  9995
2 25544  51.6420 167.1938 0001914 124.4749 347.8387 15.54690222  1581
Epoch (UTC): 26 May 2016 07:18:54
Eccentricity: 0.0001914
inclination: 51.6420°
perigee height: 402 km
apogee height: 404 km
right ascension of ascending node: 167.1938°
argument of perigee: 124.4749°
revolutions per day: 15.54690222
mean anomaly at epoch: 347.8387°
orbit number at epoch: 158

The dashed part of the orbit path shows where the satellite is in the earth's shadow,  

DLR